User: anonymous   Login
Location: Indian Springs
(36.5700°N, 115.6700°W)
Time: 04:17:15
(UTC-07:00)
Language:

Cosmos 2278 Rocket - Orbit

View from above orbital plane
View from above orbital plane
View from above satellite
View from above satellite

Ground track
Ground track

The orbit data is extracted from the following two-line orbital elements,

1 23088U 94023B   14296.67718979 -.00000073  00000-0 -13154-4 0   558
2 23088 070.9980 152.6540 0002015 169.3105 246.8163 14.14585316 58722
Epoch (UTC): 23 October 2014 16:15:09
Eccentricity: 0.0002015
inclination: 70.9980°
perigee height: 842 km
apogee height: 845 km
right ascension of ascending node: 152.6540°
argument of perigee: 169.3105°
revolutions per day: 14.14585316
mean anomaly at epoch: 246.8163°
orbit number at epoch: 5872

The dashed part of the orbit path shows where the satellite is in the earth's shadow,  

DLR